Date String (YYYY-MM-DD hh:mm:ss) UTC,Instrument flags,Ambient pressure (hPa),Sample flow (lpm),Bypass flow (lpm),Sample temperature (°C),Ambient temperature (°C),ASC tube jacket temperature (°C),LED temperature (°C),Box temperature (°C),Sample RH (%),Span deviation,Mass concentration (μg/m³),Mass concentration (μg/m³),Mass concentration (μg/m³)
DateTimeUTC,F1_M11,P_M11,Q1_M11,Q2_M11,T1_M11,T2_M11,T3_M11,T4_M11,T5_M11,U1_M11,ZSPAN_M11,X0_M11,X2_M11,X1_M11
2022-06-24 11:00:00,,0824.9,5.00,0.00,29.7,28.6,00.0,38.5,31.6,17.1,0000.0,0004.54,0001.29,0000.89
2022-06-24 11:01:00,,0824.9,5.00,0.00,29.7,28.6,00.0,38.5,31.6,17.1,0000.0,0004.80,0001.30,0000.87
2022-06-24 11:02:00,,0824.9,5.00,0.00,29.7,28.7,00.0,38.5,31.6,17.1,0000.0,0005.79,0001.35,0000.88
2022-06-24 11:03:00,,0824.9,5.00,0.00,29.7,28.7,00.0,38.5,31.6,17.0,0000.0,0005.23,0001.40,0000.88
2022-06-24 11:04:00,,0824.9,5.00,0.00,29.7,28.7,00.0,38.5,31.6,16.9,0000.0,0004.94,0001.41,0000.88
2022-06-24 11:05:00,,0824.9,5.00,0.00,29.8,28.8,00.0,38.5,31.7,17.0,0000.0,0005.08,0001.47,0000.88
2022-06-24 11:06:00,,0824.9,5.00,0.00,29.8,28.8,00.0,38.5,31.7,17.0,0000.0,0005.10,0001.46,0000.88
2022-06-24 11:07:00,,0824.9,5.00,0.00,29.8,28.8,00.0,38.6,31.7,17.0,0000.0,0004.82,0001.37,0000.85
2022-06-24 11:08:00,,0824.9,5.01,0.00,29.8,28.8,00.0,38.6,31.7,16.8,0000.0,0006.18,0001.40,0000.85
2022-06-24 11:09:00,,0824.9,5.00,0.00,29.8,28.9,00.0,38.6,31.7,16.7,0000.0,0006.21,0001.42,0000.85
2022-06-24 11:10:00,,0824.8,5.00,0.00,29.8,28.9,00.0,38.6,31.7,16.7,0000.0,0006.12,0001.42,0000.86
2022-06-24 11:11:00,,0824.9,5.00,0.00,29.9,28.9,00.0,38.6,31.7,16.8,0000.0,0005.73,0001.44,0000.86
2022-06-24 11:12:00,,0824.9,5.00,0.00,29.9,28.3,00.0,38.6,31.6,16.8,0000.0,0005.31,0001.46,0000.86
2022-06-24 11:13:00,,0824.9,5.01,0.00,29.8,27.7,00.0,38.5,31.4,16.9,0000.0,0004.60,0001.43,0000.85
2022-06-24 11:14:00,,0824.9,4.99,0.00,29.7,27.5,00.0,38.5,31.4,16.9,0000.0,0003.77,0001.35,0000.85
2022-06-24 11:15:00,,0824.9,5.00,0.00,29.6,27.5,00.0,38.5,31.3,17.1,0000.0,0003.69,0001.37,0000.86
2022-06-24 11:16:00,,0824.9,5.00,0.00,29.6,27.5,00.0,38.5,31.3,17.0,0000.0,0003.70,0001.35,0000.86
2022-06-24 11:17:00,,0824.9,5.00,0.00,29.6,27.6,00.0,38.5,31.3,17.0,0000.0,0003.54,0001.30,0000.87
2022-06-24 11:18:00,,0824.9,5.01,0.00,29.5,27.7,00.0,38.4,31.3,17.0,0000.0,0003.58,0001.32,0000.87
2022-06-24 11:19:00,,0824.9,5.00,0.00,29.5,27.9,00.0,38.4,31.3,16.9,0000.0,0002.74,0001.31,0000.89
2022-06-24 11:20:00,,0824.9,5.00,0.00,29.5,28.0,00.0,38.4,31.3,17.0,0000.0,0002.85,0001.28,0000.89
2022-06-24 11:21:00,,0824.9,5.01,0.00,29.5,28.1,00.0,38.4,31.4,16.9,0000.0,0004.24,0001.29,0000.90
2022-06-24 11:22:00,,0824.9,4.99,0.00,29.5,28.2,00.0,38.4,31.4,16.9,0000.0,0004.19,0001.28,0000.90
2022-06-24 11:23:00,,0824.9,5.00,0.00,29.6,28.3,00.0,38.4,31.4,17.0,0000.0,0004.10,0001.28,0000.92
2022-06-24 11:24:00,,0824.9,5.00,0.00,29.6,28.3,00.0,38.4,31.4,17.0,0000.0,0004.10,0001.31,0000.93
2022-06-24 11:25:00,,0824.9,5.01,0.00,29.6,28.4,00.0,38.4,31.5,17.0,0000.0,0004.21,0001.34,0000.94
2022-06-24 11:26:00,,0824.9,5.00,0.00,29.6,28.4,00.0,38.4,31.5,17.1,0000.0,0004.28,0001.36,0000.94
2022-06-24 11:27:00,,0824.9,5.00,0.00,29.6,28.5,00.0,38.4,31.5,17.1,0000.0,0004.15,0001.34,0000.95
2022-06-24 11:28:00,,0825.0,5.00,0.00,29.6,28.5,00.0,38.5,31.5,17.1,0000.0,0004.09,0001.34,0000.96
2022-06-24 11:29:00,,0825.0,5.01,0.00,29.7,28.6,00.0,38.5,31.5,17.0,0000.0,0004.02,0001.33,0000.97
2022-06-24 11:30:00,,0825.1,4.98,0.00,29.7,28.6,00.0,38.5,31.6,17.0,0000.0,0004.04,0001.33,0000.97
2022-06-24 11:31:00,,0825.0,5.00,0.00,29.7,28.6,00.0,38.5,31.6,16.9,0000.0,0004.73,0001.36,0000.99
2022-06-24 11:32:00,,0825.1,5.01,0.00,29.7,28.7,00.0,38.5,31.6,16.9,0000.0,0003.75,0001.35,0000.98
2022-06-24 11:33:00,,0825.1,4.99,0.00,29.7,28.7,00.0,38.5,31.6,16.9,0000.0,0003.71,0001.33,0000.98
2022-06-24 11:34:00,,0825.1,5.00,0.00,29.8,28.7,00.0,38.5,31.7,16.9,0000.0,0003.67,0001.29,0000.98
2022-06-24 11:35:00,,0825.2,5.00,0.00,29.8,28.8,00.0,38.6,31.7,16.9,0000.0,0003.69,0001.26,0000.99
2022-06-24 11:36:00,,0825.2,5.00,0.00,29.8,28.8,00.0,38.6,31.7,16.9,0000.0,0003.74,0001.27,0001.00
2022-06-24 11:37:00,,0825.3,5.01,0.00,29.8,28.8,00.0,38.6,31.7,17.0,0000.0,0003.82,0001.28,0001.00
2022-06-24 11:38:00,,0825.3,4.99,0.00,29.8,28.9,00.0,38.6,31.8,17.0,0000.0,0003.93,0001.30,0001.00
2022-06-24 11:39:00,,0825.3,5.00,0.00,29.9,28.9,00.0,38.6,31.7,17.2,0000.0,0004.02,0001.31,0000.99
2022-06-24 11:40:00,,0825.3,5.00,0.00,29.9,28.9,00.0,38.6,31.8,17.2,0000.0,0004.30,0001.41,0001.00
2022-06-24 11:41:00,,0825.3,5.01,0.00,29.9,29.0,00.0,38.6,31.8,17.2,0000.0,0004.69,0001.47,0001.03
2022-06-24 11:42:00,,0825.4,5.00,0.00,29.9,29.0,00.0,38.7,31.8,17.1,0000.0,0004.39,0001.48,0001.05
2022-06-24 11:43:00,,0825.3,5.01,0.00,29.9,28.4,00.0,38.6,31.7,17.0,0000.0,0003.62,0001.53,0001.08
2022-06-24 11:44:00,,0825.2,5.00,0.00,29.8,27.7,00.0,38.6,31.5,17.2,0000.0,0003.69,0001.58,0001.09
2022-06-24 11:45:00,,0825.3,5.00,0.00,29.8,27.5,00.0,38.5,31.4,17.2,0000.0,0003.86,0001.64,0001.12
2022-06-24 11:46:00,,0825.3,4.99,0.00,29.7,27.5,00.0,38.5,31.4,17.2,0000.0,0003.91,0001.66,0001.14
2022-06-24 11:47:00,,0825.3,4.99,0.00,29.7,27.6,00.0,38.5,31.4,17.2,0000.0,0004.42,0001.67,0001.14
2022-06-24 11:48:00,,0825.3,4.99,0.00,29.6,27.7,00.0,38.5,31.4,17.2,0000.0,0004.79,0001.67,0001.15
2022-06-24 11:49:00,,0825.3,5.00,0.00,29.6,27.8,00.0,38.5,31.4,17.4,0000.0,0004.85,0001.72,0001.16
2022-06-24 11:50:00,,0825.4,5.00,0.00,29.6,28.0,00.0,38.5,31.4,17.5,0000.0,0005.89,0001.76,0001.18
2022-06-24 11:51:00,,0825.3,5.01,0.00,29.6,28.1,00.0,38.5,31.4,17.2,0000.0,0006.36,0001.76,0001.20
2022-06-24 11:52:00,,0825.3,5.00,0.00,29.6,28.2,00.0,38.5,31.4,17.2,0000.0,0006.14,0001.72,0001.19
2022-06-24 11:53:00,,0825.4,4.99,0.00,29.6,28.3,00.0,38.5,31.5,17.2,0000.0,0005.60,0001.72,0001.17
2022-06-24 11:54:00,,0825.4,4.99,0.00,29.6,28.4,00.0,38.5,31.5,17.2,0000.0,0005.60,0001.70,0001.15
2022-06-24 11:55:00,,0825.3,5.01,0.00,29.7,28.5,00.0,38.5,31.5,17.2,0000.0,0005.63,0001.70,0001.15
2022-06-24 11:56:00,,0825.3,5.00,0.00,29.7,28.5,00.0,38.5,31.5,17.2,0000.0,0005.57,0001.69,0001.14
2022-06-24 11:57:00,,0825.3,5.01,0.00,29.7,28.6,00.0,38.5,31.6,17.1,0000.0,0005.51,0001.68,0001.14
2022-06-24 11:58:00,,0825.3,5.01,0.00,29.7,28.6,00.0,38.5,31.6,17.1,0000.0,0005.21,0001.69,0001.13
2022-06-24 11:59:00,,0825.4,5.00,0.00,29.7,28.7,00.0,38.5,31.6,17.1,0000.0,0004.83,0001.72,0001.14
